Погода в Редькином

Россия / Республика Башкортостан     55°48′45″N   54°30′44″E
темп.,
°C
ветер,
м/с
пор.,
м/с
влажн.,
%
обл.,
%
осадки,
мм/ч
давл.,
гПа
погр.,
м
20 января, ср
ср2023:00−14ююз2296100 0.7 101240
02:00−15зюз2396100 0.1 101243
05:00−20зюз339792 0.1 101332
08:00−21юз369892 0.1 1013161
11:00−23юз369679 0.1 1014140
14:00−21юз469694 0.1 1014303
17:00−21юз379696 0.1 1015263
20:00−22юз389793 0.1 1016207
21 января, чт
чт2123:00−21юз489794 0.1 1016228
02:00−20юз4797100 0.2 1017253
05:00−19юз489699 0.3 1017246
08:00−18юз4997100 0.3 1016274
11:00−17зюз5995100 0.5 1017373
14:00−15зюз5893100 0.1 1016410
17:00−15зюз4994100 0.2 1016361
20:00−15зюз4895100 0.1 1016241
22 января, пт
пт2223:00−14зюз4896100 0.1 1016247
02:00−14зюз379697 0.2 1015147
05:00−14з369697 0.4 1015178
08:00−14з2396100 0.4 101698
11:00−14зсз2396100 0.7 1017125
14:00−14ссз339496 0.2 1018291
17:00−20ссз339697 0.2 102029
20:00−24ссв239529 0.0 102321
23 января, сб
сб2323:00−26св229514 0.0 102620
02:00−27всв129680 0.0 102819
05:00−27в229646 0.0 102919
08:00−25вюв239496 0.0 103040
11:00−22юв479398 0.0 1030197
14:00−18ююв5891100 0.0 1029287
17:00−15ююв61095100 0.4 1027405
20:00−12ю51195100 0.9 1025580
24 января, вс
вс2423:00−11ю51095100 2.1 1024488
02:00−9ю5995100 1.4 1023402
05:00−8ю4995100 2.9 1022352
08:00−4ю5996100 2.4 1021335
11:00−1ююз51098100 4.2 1021378
14:00+2юз512100100 0.4 1020357
17:00+2юз612100100 1.0 1020349
20:00+2зюз512100100 1.3 1022306